Location: Erp
(42.9417°N, 1.2009°E)
Time: 15:34:18
(UTC+00:00)

Cosmos 1470 Rocket - Visible Passes

Search period start: 11 April 2026 00:00
Search period end: 21 April 2026 00:00
Orbit: 596 x 626 km, 82.5° (Epoch: 11 April)

Date Brightness Start Highest point End Pass type
(mag) Time Alt. Az. Time Alt. Az. Time Alt. Az.
11 Apr 3.9 19:51:26 10° SSW 19:55:48 67° W 20:00:09 10° N visible
12 Apr 5.1 20:06:42 10° SW 20:10:47 37° WNW 20:14:52 10° N visible
13 Apr 6.1 20:22:24 10° SW 20:25:51 22° WNW 20:29:17 10° NNW visible
14 Apr 6.7 20:38:50 10° W 20:41:00 13° WNW 20:43:11 10° NW visible
15 Apr 3.7 19:13:25 10° S 19:17:48 80° W 19:22:10 10° N visible
16 Apr 4.8 19:28:34 10° SSW 19:32:45 45° WNW 19:36:56 10° N visible
17 Apr 6.0 19:44:06 10° SW 19:47:47 26° WNW 19:51:27 10° NNW visible
18 Apr 6.7 20:00:14 10° WSW 20:02:54 16° WNW 20:05:34 10° NNW visible
19 Apr 7.2 04:28:55 10° NE 04:31:01 13° ENE 04:33:06 10° E visible
